Regional Weather Roundup
Issued by NWS

Home | Current Version | Previous Version | Text Only | Print | Product List | Glossary Off
Versions: 1 2 3 4 5 6 7 8 9 10 11 12 13 14 15 16 17 18 19 20 21 22 23 24 25 26 27 28 29 30 31 32 33 34 35 36 37 38 39 40 41 42 43 44 45 46 47 48 49 50

893
ASUS45 KBOU 171910
RWRCO

WEATHER ROUNDUP FOR COLORADO
NATIONAL WEATHER SERVICE DENVER/BOULDER CO
1200 PM MST SAT FEB 17 2018

NOTE: "FAIR" INDICATES FEW OR NO CLOUDS BELOW 12000 FEET WITH NO
SIGNIFICANT WEATHER AND/OR OBSTRUCTIONS TO VISIBILITY.

COZ001>005-013-030-031-172000-
...NORTHWEST COLORADO...

CITY           SKY/WX    TMP DP  RH WIND       PRES   REMARKS
CRAIG          FAIR      31  14  49 E6        30.17F WCI  25
HAYDEN         FAIR      28  17  63 S5        30.18F WCI  23
MEEKER         FAIR      41  14  33 SW13      30.18F
RANGELY        FAIR      44  13  28 W8        30.18F
RABBIT EARS PA FAIR      21  14  73 W9G17     30.10F WCI  11
STEAMBOAT SPGS FAIR      32  13  44 SE5       30.15F WCI  28
WALDEN         FAIR      30  10  43 S20G30    30.09F WCI  18
$$

COZ006>008-011-172000-
...WEST CENTRAL VALLEYS...

CITY           SKY/WX    TMP DP  RH WIND       PRES   REMARKS
GRAND JUNCTION FAIR      42  21  43 SE5       30.24F
MONTROSE       FAIR      41  19  41 CALM      30.25F
EAGLE          FAIR      39  13  34 W12       30.21F
RIFLE          FAIR      34  17  50 E3        30.24F
DELTA          FAIR      45  18  33 CALM      30.24F
NUCLA          FAIR      45  18  33 N5        30.27F
$$

COZ017>023-064>068-172000-
...SOUTHWEST COLORADO...

CITY           SKY/WX    TMP DP  RH WIND       PRES   REMARKS
DURANGO        FAIR      41  19  41 W5        30.22F
CORTEZ         FAIR      47  17  30 W7        30.23F
PAGOSA SPRINGS FAIR      38  12  34 SW5       30.23F
TELLURIDE      FAIR      36  -5  17 CALM      30.26F
WOLF CREEK PAS   N/A     19  19 100 SW7       30.29S WCI  10
$$

COZ009-010-012-014-032>034-037-058>063-172000-
...CENTRAL COLORADO...

CITY           SKY/WX    TMP DP  RH WIND       PRES   REMARKS
ASPEN          FAIR      35  10  35 N3        30.19F
BUENA VISTA    FAIR      42  -3  15 SW15G29   30.10F
COPPER MTN     FAIR      23   0  36 W24G37    30.12F HAZE    WCI   7
BERTHOUD PASS  FAIR      14   3  62 NW52G66   30.00F WCI -12
COTTONWOOD PAS FAIR      36   1  23 W18G38    30.11S
GUNNISON       FAIR      37   9  31 N5        30.21F
GRANBY         FAIR      32  12  43 W12G22    30.15F WCI  23
KREMMLING      FAIR      43  12  28 W17G24    30.15F
LEADVILLE      FAIR      28   4  35 N8G23     30.15F WCI  20
MONARCH PASS   FAIR      18   7  62 W39G45    30.26S WCI  -4
SALIDA         FAIR      47   0  14 W21G31    30.18F
SUNLIGHT       FAIR      23  10  58 SW10G28     N/A  WCI  12
WILKERSON PASS FAIR      28  -8  20 W13G28    30.12S WCI  18
$$

COZ069>075-172000-
...SAN LUIS VALLEY/SANGRE DE CRISTO MOUNTAINS...

CITY           SKY/WX    TMP DP  RH WIND       PRES   REMARKS
ALAMOSA        FAIR      40   9  28 E5        30.19F
DEL NORTE      FAIR      39  11  32 SE6       30.19F
LA VETA PASS   FAIR      34   5  29 SW28G39   30.25S WCI  20
SAGUACHE       FAIR      43   1  17 N18G30    30.17F
$$

COZ035-036-038>040-172000-
...NORTHERN COLORADO FRONT RANGE...

CITY           SKY/WX    TMP DP  RH WIND       PRES   REMARKS
DENVER INTL AP FAIR      47  10  22 SE8       30.05F
AURORA         MOSUNNY   48  11  22 E8G20     30.05F
FRONT RANGE AP MOSUNNY   48  12  23 E14       30.06F
ERIE MUNI ARPT FAIR      50   7  18 E14       30.08F
BOULDER MUN AP FAIR      52   7  16 SE8       30.01F
CENTENNIAL     FAIR      47   7  19 SE8       30.04F
BROOMFIELD     NOT AVBL
FORT COLLINS   FAIR      51   7  16 S8G18     30.02F
LONGMONT       FAIR      56   3  11 W16G25    30.04F
$$

COZ041-046-047-076>085-087-088-172000-
...PIKES PEAK/PALMER DIVIDE AND SOUTHERN FOOTHILLS...

CITY           SKY/WX    TMP DP  RH WIND       PRES   REMARKS
COLO. SPRINGS  FAIR      44  15  31 SE17      30.08F
A. F. ACADEMY  FAIR      44  11  26 SE16      30.06S
SCHRIEVER AFB  NOT AVBL
CHEYENNE MTN   FAIR      41  16  36 SE16G23   30.01F
ELLICOTT         N/A    N/A N/A N/A S16       30.08F
FALCON         FAIR      41   9  26 S15       30.10S
FORT CARSON    FAIR      47  14  26 S12       30.07F
LIMON          FAIR      44  10  25 VRB3      30.09F
MONUMENT HILL  FAIR      41  14  33 SE16      30.08S
CANON CITY     SUNNY     54  18  24 SE8G20    30.07F
WALSENBURG     NOT AVBL
TRINIDAD       FAIR      51  13  21 SE9       30.10F
$$

COZ042>045-048>051-090-091-172000-
...NORTHEAST COLORADO...

CITY           SKY/WX    TMP DP  RH WIND       PRES   REMARKS
GREELEY ARPT   FAIR      50  10  20 SW8       30.04F
AKRON          FAIR      47  12  24 NW24G38   30.06F
BURLINGTON     FAIR      50   8  18 N17G33    30.10F
WRAY           FAIR      50  12  22 NW17G26   30.09F
YUMA           NOT AVBL
STERLING       FAIR      50  10  20 NW23G31   30.04F
HOLYOKE        FAIR      52  18  25 NW16G33   30.08S
FORT MORGAN    FAIR      50   6  16 NW13G18   30.06F
$$

COZ086-089-092>099-172000-
...SOUTHEAST COLORADO...

CITY           SKY/WX    TMP DP  RH WIND       PRES   REMARKS
PUEBLO         FAIR      51  18  27 SE15      30.08F
LA JUNTA       FAIR      50  12  21 SE8       30.12F
LAMAR          FAIR      54  10  17 NE8       30.12F
SPRINGFIELD      N/A     51   9  18 NE13G22   30.13F
$$




USA.gov is the U.S. government's official web portal to all federal, state and local government web resources and services.